星链-37474(STARLINK-37474)

导读

STARLINK-37474(NORAD编号69167)是美国SpaceX公司星链(Starlink)低轨卫星互联网星座的一员,属于星链大规模组网部署的卫星之一。它运行在近地轨道,为全球提供高速低延迟互联网服务,重点覆盖地面基础设施难以到达的偏远地区、海洋和空域。星链星座目前已累计部署超过6700颗卫星,该卫星作为组网单元,支撑星座实现全球互联网覆盖,助力缩小数字鸿沟,同时也服务部分应急通信与军事应用场景,在轨运行需配合SpaceX的空间防撞调度机制,保障太空运行安全。

基本信息
目录编号:
69167
目录名称:
STARLINK-37474
国际标识:
2026-111V
轨道中心:
EARTH
卫星名称:
星链-37474
卫星全名:
星链-37474(STARLINK-37474)
卫星状态:
在轨 (已飞行115 天)
发射日期:
2026-05-21 UTC
国别 :
美国 (US)
星等 :
--
该卫星已列入 空间交会检测服务 Space Conjunction Data Service (SCDS) ,当前飞行风险评估等级: 无高风险
轨道信息
数据来源 国际轨道数据
星历时间: 2026-09-12T07:46:27+0800
1天前
查看轨道信息
半长轴: 6840.858km
偏心率: 0.0000872
轨道倾角: 53.158°
近地点辐角 107.750°
升交点赤经 105.403°
平近点角 252.359°
近地点: 462.124km
远地点: 463.318km
周期: 93.848分钟
每日圈数: 15.343942
详细信息
固有亮度:
5
最大亮度:
2.5
卫星平台:
Starlink V1.0
覆盖范围:
全球
运营商:
太空探索技术公司
运营商所在国:
美国
制造商(研发单位):
太空探索技术公司
制造商所在国:
美国
使用方式:
暂无
卫星简介
Starlink 计划是 SpaceX 推出的全球卫星互联网项目,通过发射低轨道卫星,为全球尤其是偏远地区提供高速、低延迟的互联网服务。自 2019 年起,Starlink 已部署数千颗卫星,旨在缩小全球数字鸿沟,推动互联网普及。该项目还为军事、航空等行业提供通信支持,带来广泛经济效益。
2D轨道图
3D轨道图
轨道高度分析图
轨道倾角分析图
轨道综合分析图
查看轨道综合分析图
交会数据列表
事件ID 空间交会对象 最接近时刻(TCA) 交会距离 交会风险概率(CRP) 交会风险指数(CRI) 操作
CDM_260915-162505-884306-916721
2026-09-15T
16:25:10+0000
0.792 km
远距离
2.783417E-5 中风险 0.64
CDM_260913-035405-249706-916721
2026-09-13T
03:54:24+0000
2.375 km
极远距离
1.724763E-6 低风险 0.4
CDM_260915-063605-285406-916721
2026-09-15T
06:36:58+0000
2.789 km
极远距离
1.295717E-6 低风险 0.37
与全量物体交会距离演化趋势
与全量物体交会风险概率演化趋势